12-03-2022, 00:00:03,    179,    0.2,    6.2,   0.00,   0.00, 1000.9,   97.5, -999.0
12-03-2022, 00:00:13,    187,    0.6,    6.1,   0.00,   0.01, 1000.9,   97.6, -999.0
12-03-2022, 00:00:23,    148,    0.3,    6.0,   0.00,   0.00, 1000.9,   97.6, -999.0
12-03-2022, 00:00:33,    152,    0.2,    6.1,   0.00,   0.00, 1000.9,   97.6, -999.0
12-03-2022, 00:00:43,    156,    0.0,    6.1,   0.00,   0.00, 1000.9,   97.5, -999.0
12-03-2022, 00:00:53,    156,    0.0,    6.1,   0.00,   0.00, 1000.9,   97.5, -999.0
12-03-2022, 00:01:03,    158,    0.0,    6.1,   0.00,   0.00, 1000.8,   97.4, -999.0
12-03-2022, 00:01:13,    163,    0.4,    6.1,   0.00,   0.00, 1000.9,   97.7, -999.0
12-03-2022, 00:01:23,    163,    0.0,    6.1,   0.00,   0.00, 1000.9,   97.5, -999.0
12-03-2022, 00:01:33,    163,    0.0,    6.0,   0.00,   0.00, 1000.8,   97.4, -999.0
12-03-2022, 00:01:43,    163,    0.0,    6.1,   0.00,   0.00, 1000.8,   97.4, -999.0
12-03-2022, 00:01:53,    162,    0.3,    6.1,   0.00,   0.00, 1000.9,   97.5, -999.0
12-03-2022, 00:02:03,    164,    1.2,    6.1,   0.00,   0.00, 1001.0,   97.8, -999.0
12-03-2022, 00:02:13,    123,    1.8,    6.2,   0.00,   0.00, 1001.0,   97.9, -999.0
12-03-2022, 00:02:22,    160,    1.6,    6.3,   0.00,   0.00, 1001.0,   97.9, -999.0
12-03-2022, 00:02:33,    191,    1.2,    6.2,   0.00,   0.00, 1001.0,   97.9, -999.0
12-03-2022, 00:02:43,    189,    0.1,    6.1,   0.00,   0.00, 1000.9,   97.6, -999.0
12-03-2022, 00:02:52,    188,    0.1,    6.2,   0.00,   0.00, 1000.9,   97.6, -999.0
12-03-2022, 00:03:03,    161,    1.3,    6.2,   0.00,   0.00, 1001.0,   97.9, -999.0
12-03-2022, 00:03:12,    197,    0.8,    6.2,   0.00,   0.00, 1000.9,   97.9, -999.0
12-03-2022, 00:03:22,    153,    0.0,    6.1,   0.00,   0.00, 1000.8,   97.6, -999.0
12-03-2022, 00:03:32,    153,    0.3,    6.1,   0.00,   0.00, 1000.9,   97.8, -999.0
12-03-2022, 00:03:42,    153,    0.0,    6.1,   0.00,   0.00, 1000.8,   97.5, -999.0
12-03-2022, 00:03:52,    153,    0.0,    6.0,   0.00,   0.00, 1000.9,   97.6, -999.0
12-03-2022, 00:04:02,    165,    0.8,    6.2,   0.00,   0.00, 1001.0,   97.9, -999.0
12-03-2022, 00:04:12,    193,    0.9,    6.2,   0.00,   0.00, 1001.0,   98.0, -999.0
12-03-2022, 00:04:22,    154,    0.3,    6.1,   0.00,   0.00, 1000.9,   97.8, -999.0
12-03-2022, 00:04:32,    146,    0.9,    6.2,   0.00,   0.00, 1001.0,   97.9, -999.0
12-03-2022, 00:04:42,    155,    0.9,    6.2,   0.00,   0.00, 1001.0,   97.9, -999.0
12-03-2022, 00:04:52,    142,    0.0,    6.1,   0.00,   0.00, 1000.8,   97.5, -999.0
12-03-2022, 00:05:02,    165,    0.6,    6.2,   0.00,   0.00, 1000.9,   97.7, -999.0
12-03-2022, 00:05:12,    131,    1.3,    6.1,   0.00,   0.00, 1001.0,   97.9, -999.0
12-03-2022, 00:05:22,    168,    1.1,    6.2,   0.00,   0.00, 1001.0,   97.8, -999.0
12-03-2022, 00:05:32,    182,    0.7,    6.2,   0.00,   0.00, 1001.0,   97.8, -999.0
12-03-2022, 00:05:42,    153,    1.2,    6.2,   0.00,   0.01, 1001.0,   97.9, -999.0
12-03-2022, 00:05:52,    155,    0.2,    6.2,   0.00,   0.00, 1000.9,   97.7, -999.0
12-03-2022, 00:06:01,    167,    0.6,    6.1,   0.00,   0.00, 1000.9,   97.7, -999.0
12-03-2022, 00:06:12,    157,    0.6,    6.2,   0.00,   0.00, 1001.0,   97.7, -999.0
12-03-2022, 00:06:21,    157,    0.0,    6.1,   0.00,   0.00, 1000.9,   97.6, -999.0
12-03-2022, 00:06:31,    157,    0.0,    6.1,   0.00,   0.00, 1000.9,   97.6, -999.0
12-03-2022, 00:06:41,    157,    0.0,    6.1,   0.00,   0.00, 1000.9,   97.7, -999.0
12-03-2022, 00:06:51,    157,    0.0,    6.1,   0.00,   0.00, 1000.9,   97.7, -999.0
12-03-2022, 00:07:01,    157,    0.0,    6.1,   0.00,   0.00, 1000.9,   97.5, -999.0
12-03-2022, 00:07:11,    157,    0.0,    6.0,   0.00,   0.00, 1000.8,   97.5, -999.0
12-03-2022, 00:07:21,    160,    0.0,    6.1,   0.00,   0.00, 1000.8,   97.6, -999.0
12-03-2022, 00:07:31,    160,    0.4,    6.1,   0.00,   0.00, 1001.0,   97.9, -999.0
12-03-2022, 00:07:41,    160,    0.2,    6.2,   0.00,   0.00, 1001.0,   98.0, -999.0
12-03-2022, 00:07:51,    191,    0.3,    6.2,   0.00,   0.00, 1001.0,   97.7, -999.0
12-03-2022, 00:08:01,    190,    0.0,    6.1,   0.00,   0.00, 1000.9,   97.6, -999.0
12-03-2022, 00:08:11,    189,    0.2,    6.1,   0.00,   0.00, 1000.9,   97.7, -999.0
12-03-2022, 00:08:21,    136,    0.6,    6.2,   0.00,   0.00, 1001.0,   97.8, -999.0
12-03-2022, 00:08:31,    136,    0.1,    6.1,   0.00,   0.00, 1000.9,   97.7, -999.0
12-03-2022, 00:08:41,    195,    0.2,    6.1,   0.00,   0.00, 1001.0,   97.8, -999.0
12-03-2022, 00:08:51,    194,    0.7,    6.1,   0.00,   0.00, 1000.9,   97.8, -999.0
12-03-2022, 00:09:01,    162,    1.3,    6.2,   0.00,   0.00, 1001.0,   97.9, -999.0
12-03-2022, 00:09:11,    140,    1.4,    6.1,   0.00,   0.00, 1001.0,   97.7, -999.0
12-03-2022, 00:09:21,    165,    1.4,    6.1,   0.00,   0.00, 1001.0,   97.7, -999.0
12-03-2022, 00:09:30,    209,    0.2,    6.1,   0.00,   0.00, 1001.0,   97.6, -999.0
12-03-2022, 00:09:40,    206,    0.1,    6.1,   0.00,   0.00, 1000.9,   97.5, -999.0
12-03-2022, 00:09:51,    192,    1.2,    6.2,   0.00,   0.00, 1001.0,   97.8, -999.0
12-03-2022, 00:10:00,    173,    0.5,    6.2,   0.00,   0.00, 1001.0,   97.8, -999.0
12-03-2022, 00:10:10,    174,    0.5,    6.2,   0.00,   0.00, 1001.0,   97.7, -999.0
12-03-2022, 00:10:20,    174,    0.1,    6.1,   0.00,   0.00, 1000.9,   97.5, -999.0
12-03-2022, 00:10:30,    177,    0.0,    6.1,   0.00,   0.00, 1000.9,   97.3, -999.0
12-03-2022, 00:10:40,    176,    0.2,    6.1,   0.00,   0.00, 1000.9,   97.5, -999.0
12-03-2022, 00:10:50,    177,    0.0,    6.2,   0.00,   0.00, 1000.8,   97.3, -999.0
12-03-2022, 00:11:00,    178,    0.0,    6.1,   0.00,   0.00, 1000.9,   97.3, -999.0
12-03-2022, 00:11:10,    177,    0.0,    6.1,   0.00,   0.00, 1000.9,   97.5, -999.0
12-03-2022, 00:11:20,    178,    0.0,    6.1,   0.00,   0.00, 1000.9,   97.5, -999.0
12-03-2022, 00:11:30,    178,    0.0,    6.1,   0.00,   0.00, 1000.8,   97.4, -999.0
12-03-2022, 00:11:40,    179,    0.1,    6.1,   0.00,   0.00, 1000.9,   97.5, -999.0
12-03-2022, 00:11:50,    180,    0.7,    6.2,   0.00,   0.00, 1001.0,   97.8, -999.0
12-03-2022, 00:12:00,    179,    0.5,    6.3,   0.00,   0.00, 1001.0,   97.8, -999.0
12-03-2022, 00:12:10,    179,    0.0,    6.1,   0.00,   0.00, 1000.9,   97.6, -999.0
12-03-2022, 00:12:20,    179,    0.0,    6.1,   0.00,   0.00, 1000.8,   97.5, -999.0
12-03-2022, 00:12:30,    179,    0.0,    6.1,   0.00,   0.00, 1000.8,   97.6, -999.0
12-03-2022, 00:12:39,    179,    0.0,    6.2,   0.00,   0.00, 1000.9,   97.6, -999.0
12-03-2022, 00:12:49,    179,    0.2,    6.2,   0.00,   0.00, 1000.9,   97.7, -999.0
12-03-2022, 00:13:00,    179,    0.2,    6.2,   0.00,   0.00, 1000.9,   97.7, -999.0
12-03-2022, 00:13:09,    179,    0.0,    6.1,   0.00,   0.00, 1000.8,   97.4, -999.0
12-03-2022, 00:13:19,    179,    0.0,    6.0,   0.00,   0.00, 1000.8,   97.5, -999.0
12-03-2022, 00:13:30,    168,    0.4,    6.2,   0.00,   0.00, 1001.0,   97.7, -999.0
12-03-2022, 00:13:39,    168,    0.1,    6.2,   0.00,   0.00, 1000.9,   97.6, -999.0
12-03-2022, 00:13:49,    120,    0.4,    6.2,   0.00,   0.00, 1000.9,   97.6, -999.0
12-03-2022, 00:13:59,    121,    0.4,    6.2,   0.00,   0.00, 1001.0,   97.8, -999.0
12-03-2022, 00:14:09,    124,    0.2,    6.1,   0.00,   0.00, 1000.9,   97.7, -999.0
12-03-2022, 00:14:19,    125,    0.0,    6.1,   0.00,   0.00, 1000.9,   97.6, -999.0
12-03-2022, 00:14:29,    124,    0.0,    6.2,   0.00,   0.00, 1000.9,   97.5, -999.0
12-03-2022, 00:14:39,    127,    0.0,    6.2,   0.00,   0.00, 1001.0,   97.6, -999.0
12-03-2022, 00:14:49,    131,    0.0,    6.1,   0.00,   0.00, 1001.0,   97.6, -999.0
12-03-2022, 00:14:59,    131,    0.2,    6.2,   0.00,   0.00, 1001.0,   97.8, -999.0
12-03-2022, 00:15:09,    131,    0.3,    6.1,   0.00,   0.00, 1001.0,   97.6, -999.0
12-03-2022, 00:15:19,    244,    0.3,    6.2,   0.00,   0.00, 1001.0,   97.6, -999.0
12-03-2022, 00:15:29,    218,    0.7,    6.2,   0.00,   0.00, 1001.0,   97.8, -999.0
12-03-2022, 00:15:39,    159,    0.7,    6.2,   0.00,   0.00, 1001.0,   97.8, -999.0
12-03-2022, 00:15:49,    161,    0.0,    6.1,   0.00,   0.00, 1000.9,   97.4, -999.0
12-03-2022, 00:15:59,    160,    0.6,    6.1,   0.00,   0.00, 1001.1,   97.7, -999.0
12-03-2022, 00:16:09,    183,    2.2,    6.2,   0.00,   0.00, 1001.1,   97.8, -999.0
12-03-2022, 00:16:18,    181,    0.2,    6.2,   0.00,   0.00, 1001.0,   97.7, -999.0
12-03-2022, 00:16:28,    131,    0.7,    6.0,   0.00,   0.00, 1000.9,   97.6, -999.0
12-03-2022, 00:16:39,    172,    1.9,    6.2,   0.00,   0.00, 1001.0,   97.8, -999.0
12-03-2022, 00:16:48,    210,    0.6,    6.2,   0.00,   0.00, 1001.0,   97.7, -999.0
12-03-2022, 00:16:58,    190,    0.4,    6.2,   0.00,   0.00, 1000.9,   97.6, -999.0
12-03-2022, 00:17:08,    190,    0.0,    6.1,   0.00,   0.00, 1000.9,   97.4, -999.0
12-03-2022, 00:17:18,    189,    0.0,    6.1,   0.00,   0.00, 1000.9,   97.3, -999.0
12-03-2022, 00:17:28,    164,    0.6,    6.1,   0.00,   0.00, 1001.0,   97.8, -999.0
12-03-2022, 00:17:38,    167,    0.0,    6.2,   0.00,   0.00, 1000.9,   97.6, -999.0
12-03-2022, 00:17:48,    167,    0.0,    6.1,   0.00,   0.00, 1000.9,   97.3, -999.0
12-03-2022, 00:17:58,    167,    0.0,    6.1,   0.00,   0.00, 1000.9,   97.4, -999.0
12-03-2022, 00:18:08,    168,    0.0,    6.1,   0.00,   0.00, 1000.9,   97.3, -999.0
12-03-2022, 00:18:18,    170,    0.0,    6.1,   0.00,   0.00, 1000.8,   97.4, -999.0
12-03-2022, 00:18:28,    168,    0.1,    6.1,   0.00,   0.00, 1000.9,   97.4, -999.0
12-03-2022, 00:18:38,    168,    0.5,    6.2,   0.00,   0.00, 1001.0,   97.6, -999.0
12-03-2022, 00:18:48,    172,    0.4,    6.2,   0.00,   0.00, 1001.0,   97.6, -999.0
12-03-2022, 00:18:58,    172,    0.2,    6.0,   0.00,   0.00, 1000.9,   97.4, -999.0
12-03-2022, 00:19:08,    176,    0.2,    6.1,   0.00,   0.00, 1000.9,   97.5, -999.0
12-03-2022, 00:19:18,    176,    0.0,    6.1,   0.00,   0.00, 1000.9,   97.3, -999.0
12-03-2022, 00:19:28,    164,    1.1,    6.1,   0.00,   0.00, 1001.0,   97.6, -999.0
12-03-2022, 00:19:37,    163,    0.5,    6.2,   0.00,   0.00, 1001.0,   97.6, -999.0
12-03-2022, 00:19:48,    163,    0.1,    6.1,   0.00,   0.00, 1000.9,   97.4, -999.0
12-03-2022, 00:19:57,    163,    0.0,    6.1,   0.00,   0.00, 1000.9,   97.4, -999.0
12-03-2022, 00:20:07,    163,    0.0,    6.1,   0.00,   0.00, 1000.9,   97.3, -999.0
12-03-2022, 00:20:18,    164,    0.1,    6.2,   0.00,   0.00, 1000.9,   97.5, -999.0
12-03-2022, 00:20:27,    164,    0.1,    6.1,   0.00,   0.00, 1000.9,   97.5, -999.0
12-03-2022, 00:20:37,    164,    0.1,    6.2,   0.00,   0.00, 1001.0,   97.5, -999.0
12-03-2022, 00:20:47,    172,    1.4,    6.2,   0.00,   0.00, 1000.9,   97.6, -999.0
12-03-2022, 00:20:57,    171,    0.8,    6.2,   0.00,   0.00, 1001.0,   97.7, -999.0
12-03-2022, 00:21:07,    172,    0.1,    6.1,   0.00,   0.00, 1000.9,   97.3, -999.0
12-03-2022, 00:21:17,    173,    0.0,    6.1,   0.00,   0.00, 1000.8,   97.2, -999.0
12-03-2022, 00:21:27,    100,    0.3,    6.2,   0.00,   0.00, 1001.0,   97.4, -999.0
12-03-2022, 00:21:37,    115,    0.1,    6.0,   0.00,   0.00, 1000.9,   97.4, -999.0
12-03-2022, 00:21:47,    202,    0.0,    6.1,   0.00,   0.00, 1000.9,   97.3, -999.0
12-03-2022, 00:21:57,    165,    1.8,    6.2,   0.00,   0.00, 1001.1,   97.6, -999.0
12-03-2022, 00:22:07,    148,    2.8,    6.2,   0.00,   0.00, 1001.1,   97.6, -999.0
12-03-2022, 00:22:17,    156,    1.0,    6.1,   0.00,   0.00, 1001.0,   97.5, -999.0
12-03-2022, 00:22:27,    155,    0.5,    6.1,   0.00,   0.00, 1001.0,   97.5, -999.0
12-03-2022, 00:22:37,    160,    0.6,    6.1,   0.00,   0.00, 1001.0,   97.4, -999.0
12-03-2022, 00:22:47,    155,    1.3,    6.2,   0.00,   0.00, 1001.0,   97.5, -999.0
12-03-2022, 00:22:57,    155,    0.7,    6.1,   0.00,   0.00, 1000.9,   97.4, -999.0
12-03-2022, 00:23:07,    155,    0.0,    6.1,   0.00,   0.00, 1000.9,   97.2, -999.0
12-03-2022, 00:23:16,    155,    0.0,    6.1,   0.00,   0.00, 1000.9,   97.2, -999.0
12-03-2022, 00:23:27,    158,    0.1,    6.1,   0.00,   0.00, 1000.9,   97.3, -999.0
12-03-2022, 00:23:36,    157,    0.5,    6.1,   0.00,   0.00, 1001.0,   97.5, -999.0
12-03-2022, 00:23:46,    173,    1.2,    6.2,   0.00,   0.00, 1001.0,   97.5, -999.0
12-03-2022, 00:23:56,    129,    1.7,    6.2,   0.00,   0.00, 1001.0,   97.5, -999.0
12-03-2022, 00:24:06,    148,    2.3,    6.2,   0.00,   0.00, 1001.0,   97.4, -999.0
12-03-2022, 00:24:16,    151,    0.6,    6.2,   0.00,   0.00, 1001.0,   97.4, -999.0
12-03-2022, 00:24:26,    187,    1.0,    6.1,   0.00,   0.00, 1001.0,   97.4, -999.0
12-03-2022, 00:24:36,    158,    1.5,    6.2,   0.00,   0.00, 1001.0,   97.5, -999.0
12-03-2022, 00:24:46,    182,    0.1,    6.1,   0.00,   0.00, 1000.9,   97.1, -999.0
12-03-2022, 00:24:56,    183,    0.1,    6.1,   0.00,   0.00, 1001.0,   97.2, -999.0
12-03-2022, 00:25:06,    123,    1.0,    6.2,   0.00,   0.00, 1001.0,   97.5, -999.0
12-03-2022, 00:25:16,    165,    0.6,    6.1,   0.00,   0.00, 1001.0,   97.4, -999.0
12-03-2022, 00:25:26,    165,    0.1,    6.1,   0.00,   0.00, 1001.0,   97.4, -999.0
12-03-2022, 00:25:36,    168,    0.4,    6.1,   0.00,   0.00, 1001.0,   97.5, -999.0
12-03-2022, 00:25:46,    167,    0.1,    6.1,   0.00,   0.00, 1000.9,   97.4, -999.0
12-03-2022, 00:25:56,    114,    0.8,    6.2,   0.00,   0.00, 1001.0,   97.6, -999.0
12-03-2022, 00:26:06,    114,    0.0,    6.0,   0.00,   0.00, 1000.9,   97.2, -999.0
12-03-2022, 00:26:25,    126,    0.0,    6.1,   0.00,   0.00, 1000.9,   97.2, -999.0
12-03-2022, 00:26:36,    140,    0.0,    6.1,   0.00,   0.00, 1000.9,   97.1, -999.0
12-03-2022, 00:26:45,    183,    0.9,    6.2,   0.00,   0.00, 1001.1,   97.5, -999.0
12-03-2022, 00:26:55,    182,    0.1,    6.1,   0.00,   0.00, 1001.1,   97.3, -999.0
12-03-2022, 00:27:06,    182,    0.0,    6.2,   0.00,   0.00, 1001.0,   97.3, -999.0
12-03-2022, 00:27:15,    182,    0.0,    6.1,   0.00,   0.00, 1000.9,   97.2, -999.0
12-03-2022, 00:27:25,    182,    0.0,    6.1,   0.00,   0.00, 1001.0,   97.1, -999.0
12-03-2022, 00:27:35,    182,    0.0,    6.0,   0.00,   0.00, 1001.0,   97.3, -999.0
12-03-2022, 00:27:45,    179,    0.4,    6.1,   0.00,   0.00, 1001.0,   97.4, -999.0
12-03-2022, 00:27:55,    191,    1.8,    6.2,   0.00,   0.00, 1001.1,   97.5, -999.0
12-03-2022, 00:28:05,    180,    0.3,    6.2,   0.00,   0.00, 1001.1,   97.5, -999.0
12-03-2022, 00:28:15,    183,    0.0,    6.1,   0.00,   0.00, 1001.0,   97.2, -999.0
12-03-2022, 00:28:25,    184,    0.3,    6.2,   0.00,   0.00, 1001.1,   97.4, -999.0
12-03-2022, 00:28:35,    181,    0.5,    6.1,   0.00,   0.00, 1001.1,   97.2, -999.0
12-03-2022, 00:28:45,    181,    0.0,    6.0,   0.00,   0.00, 1001.0,   97.0, -999.0
12-03-2022, 00:28:55,    181,    0.0,    6.1,   0.00,   0.00, 1001.0,   97.0, -999.0
12-03-2022, 00:29:05,    180,    0.2,    6.1,   0.00,   0.00, 1001.0,   97.2, -999.0
12-03-2022, 00:29:15,    173,    0.6,    6.2,   0.00,   0.00, 1001.1,   97.4, -999.0
12-03-2022, 00:29:25,    173,    0.0,    6.1,   0.00,   0.00, 1001.0,   97.1, -999.0
12-03-2022, 00:29:35,    173,    0.0,    6.1,   0.00,   0.00, 1000.9,   97.0, -999.0
12-03-2022, 00:29:45,    173,    0.0,    6.1,   0.00,   0.00, 1000.9,   97.1, -999.0
12-03-2022, 00:29:54,    173,    0.2,    6.2,   0.00,   0.00, 1001.0,   97.2, -999.0
12-03-2022, 00:30:04,    173,    0.0,    6.1,   0.00,   0.00, 1000.9,   97.1, -999.0
12-03-2022, 00:30:15,    174,    0.0,    6.2,   0.00,   0.00, 1001.0,   97.0, -999.0
12-03-2022, 00:30:24,    144,    0.6,    6.3,   0.00,   0.00, 1001.1,   97.4, -999.0
12-03-2022, 00:30:34,    145,    0.3,    6.3,   0.00,   0.00, 1001.1,   97.3, -999.0
12-03-2022, 00:30:44,    156,    0.4,    6.3,   0.00,   0.00, 1001.1,   97.4, -999.0
12-03-2022, 00:30:54,    120,    0.6,    6.2,   0.00,   0.00, 1001.1,   97.4, -999.0
12-03-2022, 00:31:04,    127,    1.3,    6.2,   0.00,   0.00, 1001.1,   97.3, -999.0
12-03-2022, 00:31:14,    135,    2.4,    6.2,   0.00,   0.00, 1001.1,   97.3, -999.0
12-03-2022, 00:31:24,    136,    0.5,    6.3,   0.00,   0.00, 1001.0,   97.3, -999.0
12-03-2022, 00:31:34,    152,    0.5,    6.2,   0.00,   0.00, 1001.0,   97.2, -999.0
12-03-2022, 00:31:44,    182,    1.3,    6.3,   0.00,   0.00, 1001.1,   97.4, -999.0
12-03-2022, 00:31:54,    181,    0.3,    6.2,   0.00,   0.00, 1001.0,   97.1, -999.0
12-03-2022, 00:32:04,    181,    0.0,    6.1,   0.00,   0.00, 1000.9,   96.9, -999.0
12-03-2022, 00:32:14,    181,    0.0,    6.1,   0.00,   0.00, 1001.0,   96.9, -999.0
12-03-2022, 00:32:24,    158,    0.2,    6.2,   0.00,   0.00, 1001.1,   97.1, -999.0
12-03-2022, 00:32:34,    158,    0.1,    6.2,   0.00,   0.00, 1001.0,   97.0, -999.0
12-03-2022, 00:32:44,    157,    0.4,    6.1,   0.00,   0.00, 1001.1,   97.3, -999.0
12-03-2022, 00:32:54,    160,    0.9,    6.2,   0.00,   0.00, 1001.1,   97.2, -999.0
12-03-2022, 00:33:03,    157,    1.1,    6.3,   0.00,   0.00, 1001.1,   97.1, -999.0
12-03-2022, 00:33:14,    157,    0.3,    6.2,   0.00,   0.00, 1001.0,   97.0, -999.0
12-03-2022, 00:33:24,    157,    0.0,    6.2,   0.00,   0.00, 1000.9,   96.8, -999.0
12-03-2022, 00:33:33,    161,    0.0,    6.1,   0.00,   0.00, 1001.0,   96.9, -999.0
12-03-2022, 00:33:43,    163,    0.4,    6.3,   0.00,   0.00, 1001.0,   96.9, -999.0
12-03-2022, 00:33:54,    161,    0.2,    6.2,   0.00,   0.00, 1001.0,   96.9, -999.0
12-03-2022, 00:34:03,    161,    0.0,    6.1,   0.00,   0.00, 1000.9,   96.7, -999.0
12-03-2022, 00:34:13,    162,    0.0,    6.2,   0.00,   0.00, 1001.0,   96.9, -999.0
12-03-2022, 00:34:23,    161,    0.0,    6.2,   0.00,   0.00, 1000.9,   96.9, -999.0
12-03-2022, 00:34:33,    161,    0.0,    6.2,   0.00,   0.00, 1001.0,   96.9, -999.0
12-03-2022, 00:34:43,    161,    0.4,    6.2,   0.00,   0.00, 1001.1,   97.1, -999.0
12-03-2022, 00:34:53,    159,    2.3,    6.2,   0.00,   0.00, 1001.1,   97.1, -999.0
12-03-2022, 00:35:03,    137,    1.9,    6.2,   0.00,   0.00, 1001.1,   97.0, -999.0
12-03-2022, 00:35:13,    175,    1.2,    6.2,   0.00,   0.00, 1001.1,   97.0, -999.0
12-03-2022, 00:35:23,    179,    1.3,    6.2,   0.00,   0.00, 1001.1,   97.0, -999.0
12-03-2022, 00:35:33,    187,    0.6,    6.2,   0.00,   0.00, 1001.1,   97.0, -999.0
12-03-2022, 00:35:43,    237,    0.8,    6.1,   0.00,   0.00, 1001.1,   96.9, -999.0
12-03-2022, 00:35:53,    235,    0.1,    6.1,   0.00,   0.00, 1001.0,   96.7, -999.0
12-03-2022, 00:36:03,    235,    0.0,    6.1,   0.00,   0.00, 1001.0,   96.6, -999.0
12-03-2022, 00:36:13,    162,    0.3,    6.1,   0.00,   0.00, 1001.0,   96.7, -999.0
12-03-2022, 00:36:23,    162,    0.8,    6.2,   0.00,   0.00, 1001.1,   96.8, -999.0
12-03-2022, 00:36:33,    162,    0.0,    6.0,   0.00,   0.00, 1000.9,   96.4, -999.0
12-03-2022, 00:36:42,    171,    1.2,    6.2,   0.00,   0.00, 1001.1,   96.7, -999.0
12-03-2022, 00:36:52,    171,    0.1,    6.2,   0.00,   0.00, 1001.0,   96.6, -999.0
12-03-2022, 00:37:03,    171,    0.0,    6.1,   0.00,   0.00, 1001.0,   96.4, -999.0
12-03-2022, 00:37:12,    174,    0.8,    6.2,   0.00,   0.00, 1001.0,   96.8, -999.0
12-03-2022, 00:37:22,    174,    0.5,    6.0,   0.00,   0.00, 1001.1,   96.8, -999.0
12-03-2022, 00:37:32,    174,    0.1,    6.2,   0.00,   0.00, 1001.0,   96.5, -999.0
12-03-2022, 00:37:42,    162,    0.2,    6.1,   0.00,   0.00, 1001.0,   96.6, -999.0
12-03-2022, 00:37:52,    197,    1.9,    6.2,   0.00,   0.00, 1001.1,   96.9, -999.0
12-03-2022, 00:38:02,    137,    1.0,    6.3,   0.00,   0.00, 1001.1,   96.8, -999.0
12-03-2022, 00:38:12,    168,    1.2,    6.2,   0.00,   0.00, 1001.1,   96.7, -999.0
12-03-2022, 00:38:22,    141,    1.5,    6.2,   0.00,   0.00, 1001.1,   96.7, -999.0
12-03-2022, 00:38:32,    187,    1.0,    6.3,   0.00,   0.00, 1001.1,   96.8, -999.0
12-03-2022, 00:38:42,    112,    1.6,    6.3,   0.00,   0.00, 1001.1,   96.8, -999.0
12-03-2022, 00:38:52,    134,    0.4,    6.2,   0.00,   0.00, 1001.0,   96.6, -999.0
12-03-2022, 00:39:02,    140,    0.6,    6.2,   0.00,   0.00, 1001.1,   96.6, -999.0
12-03-2022, 00:39:12,    200,    0.4,    6.2,   0.00,   0.00, 1001.1,   96.6, -999.0
12-03-2022, 00:39:22,    182,    1.2,    6.1,   0.00,   0.00, 1001.1,   96.6, -999.0
12-03-2022, 00:39:32,    174,    0.5,    6.2,   0.00,   0.00, 1001.0,   96.7, -999.0
12-03-2022, 00:39:42,    142,    0.6,    6.3,   0.00,   0.00, 1001.0,   96.6, -999.0
12-03-2022, 00:39:51,    158,    0.9,    6.2,   0.00,   0.00, 1001.0,   96.7, -999.0
12-03-2022, 00:40:02,    170,    1.2,    6.2,   0.00,   0.00, 1001.0,   96.5, -999.0
12-03-2022, 00:40:12,    146,    1.7,    6.3,   0.00,   0.00, 1001.1,   96.6, -999.0
12-03-2022, 00:40:21,    155,    1.7,    6.2,   0.00,   0.00, 1001.0,   96.6, -999.0
12-03-2022, 00:40:31,    155,    2.3,    6.3,   0.00,   0.00, 1001.0,   96.6, -999.0
12-03-2022, 00:40:42,    165,    0.7,    6.2,   0.00,   0.00, 1001.0,   96.4, -999.0
12-03-2022, 00:40:51,    165,    0.1,    6.2,   0.00,   0.00, 1001.0,   96.4, -999.0
12-03-2022, 00:41:01,    169,    0.2,    6.2,   0.00,   0.00, 1001.1,   96.4, -999.0
12-03-2022, 00:41:11,    163,    0.5,    6.3,   0.00,   0.00, 1001.1,   96.5, -999.0
12-03-2022, 00:41:21,    136,    0.3,    6.3,   0.00,   0.00, 1001.1,   96.5, -999.0
12-03-2022, 00:41:31,    137,    0.0,    6.2,   0.00,   0.00, 1000.9,   96.3, -999.0
12-03-2022, 00:41:41,    144,    0.1,    6.1,   0.00,   0.00, 1001.0,   96.3, -999.0
12-03-2022, 00:41:51,    145,    0.0,    6.2,   0.00,   0.00, 1000.9,   96.3, -999.0
12-03-2022, 00:42:01,    119,    1.0,    6.1,   0.00,   0.00, 1001.0,   96.4, -999.0
12-03-2022, 00:42:11,    136,    1.6,    6.2,   0.00,   0.00, 1001.0,   96.5, -999.0
12-03-2022, 00:42:21,    142,    1.0,    6.3,   0.00,   0.00, 1001.1,   96.4, -999.0
12-03-2022, 00:42:31,    151,    0.1,    6.2,   0.00,   0.00, 1001.0,   96.2, -999.0
12-03-2022, 00:42:41,    154,    0.0,    6.1,   0.00,   0.00, 1000.9,   96.2, -999.0
12-03-2022, 00:42:51,    157,    0.1,    6.2,   0.00,   0.00, 1001.0,   96.2, -999.0
12-03-2022, 00:43:01,    157,    0.0,    6.1,   0.00,   0.00, 1000.9,   96.0, -999.0
12-03-2022, 00:43:11,    157,    0.0,    6.2,   0.00,   0.00, 1000.9,   95.9, -999.0
12-03-2022, 00:43:21,    157,    0.1,    6.2,   0.00,   0.00, 1001.0,   96.2, -999.0
12-03-2022, 00:43:31,    157,    0.4,    6.3,   0.00,   0.00, 1001.1,   96.4, -999.0
12-03-2022, 00:43:40,    157,    0.2,    6.2,   0.00,   0.00, 1001.0,   96.3, -999.0
12-03-2022, 00:43:51,    157,    0.0,    6.1,   0.00,   0.00, 1001.0,   96.1, -999.0
12-03-2022, 00:44:00,    157,    0.0,    6.1,   0.00,   0.00, 1000.9,   96.0, -999.0
12-03-2022, 00:44:10,    157,    0.0,    6.1,   0.00,   0.00, 1000.9,   96.0, -999.0
12-03-2022, 00:44:21,    157,    0.0,    6.0,   0.00,   0.00, 1000.9,   95.9, -999.0
12-03-2022, 00:44:30,    154,    0.3,    6.2,   0.00,   0.00, 1001.1,   96.4, -999.0
12-03-2022, 00:44:40,    151,    0.4,    6.2,   0.00,   0.00, 1001.0,   96.2, -999.0
12-03-2022, 00:44:50,    146,    0.8,    6.2,   0.00,   0.00, 1001.0,   96.2, -999.0
12-03-2022, 00:45:00,    146,    0.0,    6.2,   0.00,   0.00, 1000.9,   96.0, -999.0
12-03-2022, 00:45:10,    146,    0.0,    6.1,   0.00,   0.00, 1000.9,   95.9, -999.0
12-03-2022, 00:45:20,    146,    0.0,    6.2,   0.00,   0.00, 1000.9,   95.9, -999.0
12-03-2022, 00:45:30,    131,    1.1,    6.3,   0.00,   0.00, 1001.0,   96.1, -999.0
12-03-2022, 00:45:40,    136,    0.9,    6.3,   0.00,   0.00, 1001.1,   96.2, -999.0
12-03-2022, 00:45:50,    168,    0.8,    6.2,   0.00,   0.00, 1001.1,   96.2, -999.0
12-03-2022, 00:46:00,    136,    1.1,    6.3,   0.00,   0.00, 1001.1,   96.1, -999.0
12-03-2022, 00:46:10,    142,    1.1,    6.2,   0.00,   0.00, 1001.1,   96.1, -999.0
12-03-2022, 00:46:20,    140,    0.4,    6.2,   0.00,   0.00, 1001.1,   96.0, -999.0
12-03-2022, 00:46:30,    141,    0.0,    6.1,   0.00,   0.00, 1001.0,   95.8, -999.0
12-03-2022, 00:46:40,    141,    0.1,    6.3,   0.00,   0.00, 1001.1,   95.9, -999.0
12-03-2022, 00:46:49,    141,    0.0,    6.1,   0.00,   0.00, 1001.0,   95.8, -999.0